Andrews Air Force Base, MD

3:11 PM EST on February 14, 2016 (GMT -0500)
Andrews Air Force Base-Naf

Weather History for KADW - March, 2013

Change the Weather History Date:

Saturday, March 23, 2013

  Actual Average Record
Temperature  
Mean Temperature 38 °F -  
Max Temperature 52 °F 55 °F - (-1)
Min Temperature 25 °F 34 °F - (-1)
Degree Days  
Heating Degree Days 27    
Moisture  
Dew Point 20 °F    
Average Humidity 46    
Maximum Humidity 73    
Minimum Humidity 29    
Precipitation  
Precipitation 0.00 in - - ()
Sea Level Pressure  
Sea Level Pressure 29.99 in    
Wind  
Wind Speed 7 mph (NW)    
Max Wind Speed 16 mph    
Max Gust Speed 23 mph    
Visibility 10 miles    
Events      
Averages and records for this station are not official NWS values.
T = Trace of Precipitation, MM = Missing Value Source: NWS Daily Summary

Daily Weather History Graph

Daily Weather History Graph

Search for Another Location

Airport or City:

Trip Planner

Search our weather history database for the weather conditions in past years. The results will help you decide how hot, cold, wet, or windy it might be!

Date:

Astronomy

Mar. 23, 2013 Rise Set
Actual Time 7:05 AM EDT 7:22 PM EDT
Civil Twilight 6:39 AM EDT 7:49 PM EDT
Nautical Twilight 6:08 AM EDT 8:20 PM EDT
Astronomical Twilight 5:36 AM EDT 8:52 PM EDT
Moon 3:49 PM EDT (3/23) 4:38 AM EDT (3/23)
Length of Visible Light 13h 09m
Length of Day
12h 16m
Waxing Gibbous, 85% of the Moon is Illuminated
Mar 23
Waxing Gibbous
Mar 27
Full
Apr 3
Last Quarter
Apr 10
New
Apr 18
First Quarter

Hourly Weather History & Observations

Time (EDT) Temp. Windchill Dew Point Humidity Pressure Visibility Wind Dir Wind Speed Gust Speed Precip Events Conditions
12:55 AM 30.2 °F 24.3 °F 17.2 °F 59% 30.02 in 10.0 mi Variable 5.8 mph - N/A   Clear
1:55 AM 29.1 °F 24.1 °F 17.4 °F 62% 30.02 in 10.0 mi NNW 4.6 mph - N/A   Clear
2:55 AM 27.1 °F - 18.0 °F 68% 30.01 in 10.0 mi Calm Calm - N/A   Clear
3:55 AM 25.3 °F - 17.8 °F 73% 30.00 in 10.0 mi Calm Calm - N/A   Clear
4:55 AM 29.8 °F 24.9 °F 18.1 °F 62% 30.01 in 10.0 mi West 4.6 mph - N/A   Clear
5:55 AM 31.1 °F 25.4 °F 18.1 °F 59% 30.01 in 10.0 mi WNW 5.8 mph - N/A   Clear
6:55 AM 30.6 °F 25.8 °F 17.8 °F 59% 30.02 in 10.0 mi WNW 4.6 mph - N/A   Clear
7:55 AM 33.3 °F - 19.9 °F 58% 30.04 in 10.0 mi Calm Calm - N/A   Clear
8:55 AM 37.0 °F 31.6 °F 20.5 °F 51% 30.04 in 10.0 mi WNW 6.9 mph - N/A   Clear
9:55 AM 40.6 °F 33.4 °F 19.8 °F 43% 30.04 in 10.0 mi WNW 12.7 mph - N/A   Clear
10:55 AM 42.8 °F 36.6 °F 19.8 °F 40% 30.05 in 10.0 mi WNW 11.5 mph 23.0 mph N/A   Clear
11:55 AM 44.8 °F 37.7 °F 19.8 °F 37% 30.01 in 10.0 mi WNW 16.1 mph - N/A   Clear
12:55 PM 46.9 °F - 20.3 °F 35% 29.99 in 10.0 mi WNW 9.2 mph - N/A   Clear
1:55 PM 49.3 °F - 20.3 °F 32% 29.97 in 10.0 mi WNW 13.8 mph 19.6 mph N/A   Clear
2:55 PM 50.5 °F - 21.0 °F 31% 29.94 in 10.0 mi NW 12.7 mph 21.9 mph N/A   Clear
3:55 PM 51.6 °F - 20.1 °F 29% 29.93 in 10.0 mi WNW 12.7 mph 19.6 mph N/A   Clear
4:55 PM 51.6 °F - 20.1 °F 29% 29.92 in 10.0 mi NNW 11.5 mph - N/A   Clear
5:55 PM 51.4 °F - 19.8 °F 29% 29.93 in 10.0 mi NW 10.4 mph - N/A   Clear
6:55 PM 50.0 °F - 19.9 °F 31% 29.92 in 10.0 mi NNW 12.7 mph - N/A   Clear
7:55 PM 46.9 °F - 20.5 °F 35% 29.94 in 10.0 mi NNW 8.1 mph - N/A   Clear
8:55 PM 44.1 °F 38.6 °F 20.7 °F 39% 29.96 in 10.0 mi NNW 10.4 mph - N/A   Clear
9:55 PM 40.5 °F 35.8 °F 21.0 °F 46% 29.98 in 10.0 mi North 6.9 mph - N/A   Clear
10:55 PM 38.7 °F 32.4 °F 21.0 °F 49% 29.99 in 10.0 mi North 9.2 mph - N/A   Clear
11:55 PM 38.1 °F 31.2 °F 21.7 °F 52% 30.00 in 10.0 mi North 10.4 mph - N/A   Clear